Thunder radar more information blitzortung!


Radar de pluja more information rain snow radar


Visita la nostra xarxa de llocs de meteo:

Template documentation
and downloads

And another site



No particular awareness of the weather is required.    There are no Weather-warnings

Pagina Historial Weather Underground text

Diari Resum Cap La, TWC- Unitats:  Mètric    Imperial   Tant
« Previous Dia
SegĂźent Dia »
Diari Setmana Mensual Anual Personalitzada
  Maxima: Minima: Media:
Temperatura: -17.8 °C -7.7 °C -7.2 °C
Punt de rosada: -17.8 °C -9.8 °C -9.8 °C
Humitat: Humidity % 67 % 73 %
Wind Speed: 0 km/h 0 km/h 0.2 km/h
RĂ fegues de vent: 0 km/h - -
Vent:- - SW
Pression baro: 0 hPa 34500 hPa -
Precipitacions: 0 mm    
Historical Graphs
 
 
Dades de taula per Cap La, TWC-
Temps Temperatura Punt de rosada Pression baro Vent Wind Speed RĂ fegues de vent Humitat Rainfall Rate (Hourly)
-17.8 °C -17.8 °C 0 hPa Calm     Humidity % 0 mm
00:04 -6.1 °C -9.7 °C 34500 hPa Calm     67 % 0 mm
00:09 -6.2 °C -9.7 °C 34500 hPa Calm     67 % 0 mm
00:14 -6.2 °C -9.7 °C 34500 hPa Calm     67 % 0 mm
00:19 -6.1 °C -9.7 °C 34500 hPa Calm     67 % 0 mm
00:24 -6.2 °C -9.6 °C 34500 hPa Calm     68 % 0 mm
00:29 -6.2 °C -9.5 °C 34500 hPa Calm     69 % 0 mm
00:34 -6.4 °C -9.7 °C 34500 hPa Calm     69 % 0 mm
00:39 -6.5 °C -9.8 °C 34500 hPa Calm     69 % 0 mm
00:44 -6.6 °C -9.8 °C 34500 hPa Calm     70 % 0 mm
00:49 -6.7 °C -9.8 °C 34500 hPa Calm     70 % 0 mm
00:54 -6.7 °C -9.7 °C 34500 hPa Calm     71 % 0 mm
00:59 -6.7 °C -9.7 °C 34500 hPa Calm     71 % 0 mm
01:04 -6.7 °C -9.7 °C 34500 hPa Calm     71 % 0 mm
01:09 -6.7 °C -9.7 °C 34500 hPa Calm     71 % 0 mm
01:14 -6.7 °C -9.5 °C 34500 hPa Calm     73 % 0 mm
01:19 -6.7 °C -9.5 °C 34500 hPa Calm     73 % 0 mm
01:24 -6.8 °C -9.6 °C 34533.8 hPa Calm     73 % 0 mm
01:29 -6.8 °C -9.6 °C 34533.8 hPa Calm     73 % 0 mm
01:34 -6.8 °C -9.6 °C 34533.8 hPa Calm     73 % 0 mm
01:39 -6.7 °C -9.5 °C 34533.8 hPa Calm     73 % 0 mm
01:44 -6.8 °C -9.7 °C 34533.8 hPa Calm     72 % 0 mm
01:49 -6.9 °C -9.7 °C 34533.8 hPa Calm     73 % 0 mm
01:54 -6.9 °C -9.7 °C 34500 hPa Calm     73 % 0 mm
01:59 -6.9 °C -9.7 °C 34500 hPa Calm     73 % 0 mm
02:04 -6.9 °C -9.6 °C 34500 hPa Calm     74 % 0 mm
02:09 -6.9 °C -9.6 °C 34533.8 hPa Calm     74 % 0 mm
02:14 -7 °C -9.6 °C 34533.8 hPa Calm     74 % 0 mm
02:19 -7.1 °C -9.6 °C 34533.8 hPa Calm     75 % 0 mm
02:24 -7.1 °C -9.6 °C 34533.8 hPa Calm     75 % 0 mm
02:29 -7.1 °C -9.6 °C 34533.8 hPa Calm     75 % 0 mm
02:34 -7.1 °C -9.6 °C 34533.8 hPa Calm     75 % 0 mm
02:39 -7.2 °C -9.7 °C 34500 hPa Calm     75 % 0 mm
02:44 -7.2 °C -9.8 °C 34500 hPa Calm     75 % 0 mm
02:49 -7.3 °C -9.7 °C 34500 hPa Calm     76 % 0 mm
02:54 -7.3 °C -9.6 °C 34500 hPa Calm     77 % 0 mm
02:59 -7.3 °C -9.5 °C 34500 hPa Calm     78 % 0 mm
03:04 -7.3 °C -9.5 °C 34500 hPa Calm     78 % 0 mm
03:09 -7.3 °C -9.5 °C 34500 hPa Calm     78 % 0 mm
03:14 -7.3 °C -9.6 °C 34500 hPa Calm     77 % 0 mm
03:19 -7.4 °C -9.6 °C 34500 hPa Calm     78 % 0 mm
03:24 -7.5 °C -9.7 °C 34533.8 hPa Calm     78 % 0 mm
03:29 -7.6 °C -9.7 °C 34533.8 hPa Calm     78 % 0 mm
03:34 -7.6 °C -9.7 °C 34533.8 hPa Calm     78 % 0 mm
03:39 -7.6 °C -9.8 °C 34500 hPa SW 3.1 km/h   78 % 0 mm
03:44 -7.6 °C -9.7 °C 34500 hPa Calm     78 % 0 mm
03:49 -7.6 °C -9.8 °C 34500 hPa Calm     78 % 0 mm
03:54 -7.6 °C -9.8 °C 34533.8 hPa SW 3.1 km/h   78 % 0 mm
03:59 -7.6 °C -9.7 °C 34533.8 hPa Calm     79 % 0 mm
04:04 -7.7 °C -9.7 °C 34533.8 hPa Calm     79 % 0 mm
04:09 -7.7 °C -9.7 °C 34533.8 hPa Calm     79 % 0 mm
04:14 -7.7 °C -9.7 °C 34533.8 hPa Calm     79 % 0 mm
Meteo Sesrovires
Elogis d' Weather Underground - 2 mb

Guio original per  Jim McMurry - jmcmurry@mwt.net Adaptat per a la plantilla per  Wim van der Kuil - Leuven-Template.eu

Trobareu la nostra informacio del temps tambe a:

Weather Underground

AWEKAS